Volver al catálogo

STARLINK-2739

ActivoComunicacionesVLEO
NORAD 48639·PAYLOAD·🇺🇸 United States

Lanzado May 26, 2021 desde Cape Canaveral Space Force Station

Loading…

Próximos Pases (próximas 24 horas)

TLE

ActualizadoSource: CelesTrak SupGP

Época: Sep 15, 2026, 02:09 UTC

1 48639C 21044B   26258.09006944  .00045302  00000+0  14561-2 0  2586
2 48639  53.1600 312.4237 0001312  88.7861 310.1820 15.31694912    11

Sigue STARLINK-2739 en tiempo real con AllMySat

Download on the App Store